KD7RJ Weather Reports


time (UTC)temp
F
wind
direction
speed
knots
gust
knots
rain 1hr
in
rain 24hr
in
rain mn
in
humidity
%
barometer
mb
20260504150108 56 180 2.6 6.1 0.00 0.02 0.02 88 1011.8
20260504120110 57 160 1.7 7.8 0.00 0.02 0.02 82 1009.5
20260504081500 64 342 0.0 0.0 0.00 0.02 0.02 63 1007.1
20260504044511 79 32 0.9 7.0 0.00 0.02 0.02 37 1006.2
20260504043010 79 38 0.9 7.0 0.00 0.02 0.02 36 1006.0
20260504041550 80 30 0.9 7.0 0.00 0.02 0.02 35 1005.9
20260504040049 80 24 1.7 7.8 0.00 0.02 0.02 35 1005.8
20260504034534 81 16 0.9 8.7 0.00 0.02 0.02 36 1005.7
20260504033041 81 29 1.7 7.0 0.00 0.02 0.02 36 1005.5
20260504031508 83 22 1.7 6.1 0.00 0.02 0.02 35 1005.5
20260504030002 84 40 0.0 7.0 0.00 0.02 0.02 35 1005.4
20260504024554 85 33 0.9 6.1 0.00 0.02 0.02 35 1005.4
20260504023038 86 22 2.6 10.4 0.00 0.03 0.02 33 1005.2
20260504021517 87 26 0.9 6.1 0.01 0.03 0.02 32 1005.3
20260504020015 88 360 0.0 9.6 0.02 0.03 0.02 31 1005.3
20260504014600 90 37 0.0 5.2 0.02 0.03 0.02 30 1005.4
20260504013106 91 38 0.9 7.8 0.02 0.03 0.02 28 1005.4
20260504011551 92 21 1.7 10.4 0.01 0.02 0.01 25 1005.6
20260504010049 92 44 1.7 7.0 0.00 0.01 0.00 27 1005.7
20260504004600 93 15 2.6 7.8 0.00 0.01 0.00 27 1005.9
20260504003045 93 61 3.5 8.7 0.00 0.01 0.00 26 1006.0
20260504001543 94 24 1.7 5.2 0.00 0.01 0.00 24 1006.0
20260504000042 95 10 0.9 7.8 0.00 0.01 0.00 23 1006.0
20260503234521 94 355 0.9 6.1 0.00 0.01 0.00 23 1006.2
20260503233017 95 38 4.3 7.8 0.00 0.01 0.00 21 1006.3
20260503231558 96 43 1.7 5.2 0.00 0.01 0.00 21 1006.5
20260503230056 96 31 1.7 7.8 0.00 0.01 0.00 20 1006.7
20260503224535 96 49 0.0 6.1 0.00 0.01 0.00 19 1007.0
20260503223032 96 19 0.9 5.2 0.00 0.01 0.01 19 1007.2
20260503221512 95 10 1.7 6.1 0.00 0.01 0.01 20 1007.5
20260503220014 96 36 3.5 7.8 0.00 0.01 0.01 21 1007.7
20260503214551 96 26 0.0 5.2 0.00 0.01 0.01 24 1007.9
20260503213046 94 355 0.9 6.1 0.00 0.01 0.01 24 1008.1
20260503211536 94 70 0.9 7.0 0.00 0.01 0.01 26 1008.3
20260503210023 93 33 0.9 7.8 0.00 0.01 0.01 26 1008.4
20260503204501 91 31 0.0 5.2 0.00 0.01 0.01 27 1008.6
20260503203058 89 40 0.9 7.8 0.00 0.01 0.01 29 1008.8
20260503201536 88 46 1.7 7.0 0.00 0.01 0.01 31 1009.0
20260503200033 87 52 2.6 6.1 0.00 0.01 0.01 33 1009.1
20260503194512 86 59 0.9 8.7 0.00 0.01 0.01 34 1009.3
20260503193027 85 39 0.9 7.0 0.00 0.01 0.01 34 1009.4
20260503191608 83 50 0.9 6.1 0.00 0.01 0.01 38 1009.6
20260503190050 82 54 1.7 6.1 0.00 0.01 0.01 38 1009.8
20260503184554 81 11 0.0 7.0 0.00 0.01 0.01 40 1010.0
20260503183020 80 33 1.7 6.1 0.00 0.01 0.01 44 1010.1
20260503181515 78 40 0.0 4.3 0.00 0.01 0.01 45 1010.3
20260503180056 77 22 1.7 7.0 0.00 0.01 0.01 49 1010.5
20260503174607 76 37 2.6 5.2 0.00 0.01 0.01 48 1010.6
20260503173031 75 30 1.7 7.0 0.00 0.01 0.01 49 1010.7
20260503171528 74 53 0.0 5.2 0.00 0.01 0.01 52 1010.7